カタログに戻る

SL-24 R/B

運用中PO
NORAD 33319·ROCKET BODY·🇷🇺 Russia

打ち上げ Aug 29, 2008 から Baikonur Cosmodrome

Loading…

次のパス (今後24時間)

TLE

最新Source: Space-Track

元期: Sep 14, 2026, 07:10 UTC

1 33319U 08040H   26257.29888214  .00000047  00000-0  33718-4 0  9992
2 33319  97.9270  89.2916 0494274 124.4073  44.4384 13.75817084905567

AllMySatでSL-24 R/Bをリアルタイム追跡

Download on the App Store